This demonstration page uses our WeatherBlox Daily Observations layout. Learn more.

Left ArrowRight Arrow

Hourly Observations for January 2, 2015

Temp ( °F °C ) Dew Point ( °F °C ) Humidity (%) Winds ( mph kmh ) Pressure ( in mb ) Visibility ( mi km ) Precip ( " mm )
12:15 am 00:15 Clear 30 -1 12 -11 47 47 WSW 12 19 30.24 1024 10 16.0934 N/A
12:35 am 00:35 Clear 30 -1 12 -11 47 47 WSW 10 17 30.24 1024 10 16.0934 N/A
12:55 am 00:55 Clear 28 -2 12 -11 51 51 WSW 10 17 30.24 1024 10 16.0934 N/A
1:16 am 01:16 Clear 28 -2 12 -11 51 51 W 9 15 30.24 1024 10 16.0934 N/A
1:35 am 01:35 Clear 28 -2 12 -11 51 51 W 8 13 30.24 1024 10 16.0934 N/A
1:55 am 01:55 Clear 30 -1 14 -10 51 51 W 8 13 30.24 1024 10 16.0934 N/A
2:15 am 02:15 Clear 28 -2 12 -11 51 51 W 7 11 30.24 1024 10 16.0934 N/A
2:35 am 02:35 Clear 27 -3 14 -10 59 59 WSW 7 11 30.24 1024 10 16.0934 N/A
2:55 am 02:55 Clear 28 -2 12 -11 51 51 WSW 7 11 30.24 1024 10 16.0934 N/A
3:15 am 03:15 Clear 27 -3 12 -11 54 54 SW 6 9 30.27 1025 10 16.0934 N/A
3:35 am 03:35 Partly Cloudy 28 -2 14 -10 55 55 WSW 6 9 30.27 1025 10 16.0934 N/A
3:56 am 03:56 Clear 27 -3 14 -10 59 59 SW 7 11 30.27 1025 10 16.0934 N/A
4:15 am 04:15 Clear 27 -3 14 -10 59 59 SW 6 9 30.27 1025 10 16.0934 N/A
4:35 am 04:35 Clear 27 -3 14 -10 59 59 SW 5 7 30.27 1025 10 16.0934 N/A
4:55 am 04:55 Clear 25 -4 14 -10 63 63 SW 3 6 30.3 1026 10 16.0934 N/A
5:15 am 05:15 Clear 27 -3 14 -10 59 59 SW 6 9 30.27 1025 10 16.0934 N/A
5:36 am 05:36 Partly Cloudy 27 -3 16 -9 64 64 WSW 6 9 30.27 1025 10 16.0934 N/A
5:55 am 05:55 Partly Cloudy 27 -3 16 -9 64 64 WSW 6 9 30.27 1025 10 16.0934 N/A
6:15 am 06:15 Partly Cloudy 27 -3 16 -9 64 64 SW 6 9 30.27 1025 10 16.0934 N/A
6:35 am 06:35 Cloudy 28 -2 16 -9 59 59 WSW 5 7 30.27 1025 10 16.0934 N/A
6:55 am 06:55 Mostly Cloudy 27 -3 16 -9 64 64 WSW 3 6 30.27 1025 10 16.0934 N/A
7:15 am 07:15 Partly Cloudy 27 -3 16 -9 64 64 Calm 30.27 1025 10 16.0934 N/A
7:35 am 07:35 Mostly Cloudy 27 -3 16 -9 64 64 Calm 30.27 1025 10 16.0934 N/A
7:55 am 07:55 Partly Cloudy 27 -3 16 -9 64 64 Calm 30.3 1026 10 16.0934 N/A
8:15 am 08:15 Partly Cloudy 25 -4 16 -9 69 69 Calm 30.33 1027 10 16.0934 N/A
8:35 am 08:35 Mostly Cloudy 27 -3 18 -8 69 69 SW 3 6 30.36 1028 10 16.0934 N/A
8:55 am 08:55 Mostly Cloudy 28 -2 18 -8 64 64 Calm 30.33 1027 10 16.0934 N/A
9:15 am 09:15 Mostly Cloudy 30 -1 18 -8 59 59 Calm 30.33 1027 10 16.0934 N/A
9:35 am 09:35 Partly Cloudy 30 -1 16 -9 55 55 Calm 30.36 1028 10 16.0934 N/A
9:55 am 09:55 Partly Cloudy 32 0 14 -10 47 47 W 3 6 30.36 1028 10 16.0934 N/A
10:15 am 10:15 Sunny 32 0 12 -11 44 44 W 5 7 30.36 1028 10 16.0934 N/A
10:35 am 10:35 Sunny 32 0 10 -12 40 40 WNW 6 9 30.36 1028 10 16.0934 N/A
10:55 am 10:55 Sunny 32 0 10 -12 40 40 W 5 7 30.36 1028 10 16.0934 N/A
11:15 am 11:15 Sunny 34 1 10 -12 38 38 Calm 30.36 1028 10 16.0934 N/A
11:35 am 11:35 Sunny 34 1 10 -12 38 38 Calm 30.36 1028 10 16.0934 N/A
11:56 am 11:56 Sunny 34 1 9 -13 35 35 Calm 30.36 1028 10 16.0934 N/A
12:15 pm 12:15 Sunny 36 2 9 -13 32 32 Calm 30.33 1027 10 16.0934 N/A
12:35 pm 12:35 Sunny 36 2 9 -13 32 32 SW 3 6 30.33 1027 10 16.0934 N/A
12:55 pm 12:55 Sunny 37 3 10 -12 33 33 SSW 3 6 30.33 1027 10 16.0934 N/A
1:15 pm 13:15 Sunny 37 3 9 -13 30 30 Calm 30.33 1027 10 16.0934 N/A
1:35 pm 13:35 Sunny 37 3 9 -13 30 30 Calm 30.33 1027 10 16.0934 N/A
1:55 pm 13:55 Sunny 37 3 9 -13 30 30 SW 3 6 30.3 1026 10 16.0934 N/A
2:16 pm 14:16 Sunny 39 4 10 -12 30 30 SW 3 6 30.3 1026 10 16.0934 N/A
2:35 pm 14:35 Sunny 37 3 10 -12 33 33 S 3 6 30.3 1026 10 16.0934 N/A
2:55 pm 14:55 Sunny 39 4 10 -12 30 30 S 3 6 30.3 1026 10 16.0934 N/A
3:15 pm 15:15 Sunny 39 4 12 -11 33 33 S 5 7 30.3 1026 10 16.0934 N/A
3:35 pm 15:35 Sunny 37 3 12 -11 35 35 SSE 3 6 30.3 1026 10 16.0934 N/A
3:56 pm 15:56 Sunny 39 4 10 -12 30 30 Calm 30.3 1026 10 16.0934 N/A
4:15 pm 16:15 Sunny 37 3 12 -11 35 35 Calm 30.3 1026 10 16.0934 N/A
4:35 pm 16:35 Sunny 37 3 14 -10 38 38 S 3 6 30.3 1026 10 16.0934 N/A
4:55 pm 16:55 Sunny 36 2 16 -9 44 44 S 5 7 30.33 1027 10 16.0934 N/A
5:15 pm 17:15 Sunny 36 2 16 -9 44 44 SSE 3 6 30.33 1027 10 16.0934 N/A
5:36 pm 17:36 Clear 36 2 18 -8 48 48 S 3 6 30.33 1027 10 16.0934 N/A
5:55 pm 17:55 Clear 34 1 19 -7 56 56 S 3 6 30.33 1027 10 16.0934 N/A
6:15 pm 18:15 Clear 34 1 19 -7 56 56 SSE 5 7 30.33 1027 10 16.0934 N/A
6:35 pm 18:35 Clear 34 1 21 -6 60 60 S 3 6 30.33 1027 10 16.0934 N/A
6:55 pm 18:55 Clear 34 1 21 -6 60 60 S 5 7 30.33 1027 10 16.0934 N/A
7:15 pm 19:15 Clear 34 1 21 -6 60 60 SSE 3 6 30.33 1027 10 16.0934 N/A
7:35 pm 19:35 Clear 32 0 23 -5 69 69 SSE 5 7 30.33 1027 10 16.0934 N/A
7:55 pm 19:55 Clear 32 0 23 -5 69 69 SE 3 6 30.33 1027 10 16.0934 N/A
8:15 pm 20:15 Mostly Cloudy 32 0 25 -4 75 75 SE 5 7 30.33 1027 10 16.0934 N/A
8:35 pm 20:35 Cloudy 34 1 23 -5 65 65 SSE 5 7 30.33 1027 10 16.0934 N/A
8:55 pm 20:55 Cloudy 34 1 25 -4 70 70 Calm 30.3 1026 10 16.0934 N/A
9:15 pm 21:15 Cloudy 34 1 25 -4 70 70 SE 5 7 30.3 1026 10 16.0934 N/A
9:35 pm 21:35 Cloudy 34 1 27 -3 75 75 SE 5 7 30.3 1026 7 11.26538 N/A
9:55 pm 21:55 Cloudy 34 1 27 -3 75 75 SE 8 13 30.27 1025 7 11.26538 N/A
10:15 pm 22:15 Cloudy 34 1 27 -3 75 75 SE 6 9 30.27 1025 7 11.26538 N/A
10:35 pm 22:35 Cloudy 34 1 27 -3 75 75 SE 5 7 30.27 1025 7 11.26538 N/A
10:55 pm 22:55 Cloudy 34 1 27 -3 75 75 SE 6 9 30.27 1025 7 11.26538 N/A
11:15 pm 23:15 Cloudy 34 1 27 -3 75 75 SE 6 9 30.27 1025 7 11.26538 N/A
11:35 pm 23:35 Cloudy 34 1 28 -2 81 81 SE 7 11 30.24 1024 7 11.26538 N/A
11:56 pm 23:56 Cloudy 34 1 28 -2 81 81 SE 7 11 30.24 1024 7 11.26538 N/A

Powered by AerisWeather